Location: Mahannah Oil Field
(37.4664°N, 96.6003°W)
Time: 09:56:31
(UTC+00:00)

A-11 Canister half - All Passes

Search period start: 24 January 2021 00:00
Search period end: 03 February 2021 00:00
Orbit: 1524 x 1684 km, 47.3° (Epoch: 23 January)

Date Brightness Start Highest point End Pass type
(mag) Time Alt. Az. Time Alt. Az. Time Alt. Az.
24 Jan - 00:52:21 10° WNW 01:01:36 50° N 01:11:10 10° E visible
24 Jan - 02:57:45 10° WNW 03:07:32 89° SSW 03:17:37 10° SE visible
24 Jan - 05:03:41 10° WNW 05:11:52 31° SW 05:20:14 10° S visible
24 Jan - 18:17:23 10° S 18:23:53 22° SE 18:30:26 10° E daylight
24 Jan - 20:18:26 10° SW 20:27:42 76° SE 20:37:11 10° ENE daylight
24 Jan - 22:24:05 10° W 22:33:13 54° NNW 22:42:39 10° ENE daylight
25 Jan - 00:30:40 10° WNW 00:39:52 50° N 00:49:22 10° E visible
25 Jan - 02:36:06 10° WNW 02:45:51 88° NNE 02:55:55 10° ESE visible
25 Jan - 04:41:55 10° WNW 04:50:15 33° SW 04:58:48 10° S visible
25 Jan - 17:56:08 10° SSE 18:02:19 20° SE 18:08:31 10° E daylight
25 Jan - 19:56:50 10° SW 20:06:03 73° SE 20:15:30 10° ENE daylight
25 Jan - 22:02:22 10° W 22:11:30 55° NNW 22:20:56 10° ENE daylight
26 Jan - 00:08:58 10° WNW 00:18:08 49° N 00:27:35 10° E visible
26 Jan - 02:14:26 10° WNW 02:24:10 85° NNE 02:34:12 10° ESE visible
26 Jan - 04:20:09 10° WNW 04:28:38 34° SW 04:37:19 10° S visible
26 Jan - 17:34:55 10° SSE 17:40:45 19° SE 17:46:36 10° E daylight
26 Jan - 19:35:15 10° SW 19:44:26 70° SE 19:53:48 10° ENE daylight
26 Jan - 21:40:39 10° W 21:49:48 56° NNW 21:59:13 10° ENE daylight
26 Jan - 23:47:16 10° WNW 23:56:23 48° N 00:05:48 10° E daylight
27 Jan - 01:52:47 10° WNW 02:02:29 82° NNE 02:12:29 10° ESE visible
27 Jan - 03:58:24 10° WNW 04:07:01 36° SW 04:15:50 10° SSE visible
27 Jan - 17:13:45 10° SSE 17:19:11 17° SE 17:24:38 10° E daylight
27 Jan - 19:13:40 10° SW 19:22:48 67° SE 19:32:07 10° ENE daylight
27 Jan - 21:18:56 10° W 21:28:05 57° NNW 21:37:30 10° ENE daylight
27 Jan - 23:25:35 10° WNW 23:34:40 48° N 23:44:01 10° E daylight
28 Jan - 01:31:08 10° WNW 01:40:47 80° NNE 01:50:46 10° ESE visible
28 Jan - 03:36:40 10° WNW 03:45:23 39° SW 03:54:21 10° SSE visible
28 Jan - 16:52:38 10° SSE 16:57:38 16° ESE 17:02:36 10° E daylight
28 Jan - 18:52:05 10° SW 19:01:11 63° SE 19:10:26 10° ENE daylight
28 Jan - 20:57:13 10° W 21:06:23 58° NNW 21:15:48 10° ENE daylight
28 Jan - 23:03:52 10° WNW 23:12:55 47° N 23:22:14 10° ENE daylight
29 Jan - 01:09:29 10° WNW 01:19:06 77° NNE 01:29:02 10° ESE visible
29 Jan - 03:14:56 10° WNW 03:23:46 41° SW 03:32:50 10° SSE visible
29 Jan - 16:31:36 10° SSE 16:36:04 14° ESE 16:40:31 10° E daylight
29 Jan - 18:30:31 10° SW 18:39:34 60° SE 18:48:44 10° ENE daylight
29 Jan - 20:35:31 10° W 20:44:41 60° NNW 20:54:05 10° ENE daylight
29 Jan - 22:42:10 10° WNW 22:51:11 47° N 23:00:27 10° ENE daylight
30 Jan - 00:47:50 10° WNW 00:57:24 75° NNE 01:07:19 10° ESE visible
30 Jan - 02:53:14 10° WNW 03:02:08 43° SW 03:11:19 10° SSE visible
30 Jan - 16:10:40 10° SSE 16:14:30 13° ESE 16:18:20 10° E daylight
30 Jan - 18:08:57 10° SSW 18:17:57 58° SE 18:27:03 10° ENE daylight
30 Jan - 20:13:48 10° WSW 20:22:59 62° NNW 20:32:24 10° ENE daylight
30 Jan - 22:20:28 10° WNW 22:29:27 47° N 22:38:41 10° ENE daylight
31 Jan - 00:26:11 10° WNW 00:35:43 72° NNE 00:45:35 10° ESE visible
31 Jan - 02:31:32 10° WNW 02:40:30 45° SW 02:49:46 10° SSE visible
31 Jan - 15:49:54 10° SE 15:52:57 12° ESE 15:55:58 10° ESE daylight
31 Jan - 17:47:25 10° SSW 17:56:21 55° SE 18:05:21 10° ENE daylight
31 Jan - 19:52:06 10° WSW 20:01:18 63° NNW 20:10:42 10° ENE daylight
31 Jan - 21:58:45 10° WNW 22:07:43 47° N 22:16:55 10° ENE daylight
01 Feb - 00:04:31 10° WNW 00:14:01 70° NNE 00:23:50 10° ESE visible
01 Feb - 02:09:50 10° WNW 02:18:53 48° SW 02:28:13 10° SSE visible
01 Feb - 15:29:31 10° SE 15:31:23 11° ESE 15:33:16 10° ESE daylight
01 Feb - 17:25:52 10° SSW 17:34:44 52° SE 17:43:39 10° ENE daylight
01 Feb - 19:30:24 10° WSW 19:39:37 65° NNW 19:49:01 10° ENE daylight
01 Feb - 21:37:03 10° WNW 21:45:59 46° N 21:55:09 10° ENE daylight
01 Feb - 23:42:52 10° WNW 23:52:19 68° NNE 00:02:05 10° ESE daylight
02 Feb - 01:48:08 10° WNW 01:57:15 50° SW 02:06:40 10° SSE visible
02 Feb - 03:58:58 10° WSW 04:00:44 11° WSW 04:02:32 10° SW visible
02 Feb - 17:04:20 10° SSW 17:13:08 49° SE 17:21:57 10° ENE daylight
02 Feb - 19:08:42 10° WSW 19:17:56 67° NNW 19:27:20 10° ENE daylight
02 Feb - 21:15:20 10° WNW 21:24:15 46° N 21:33:23 10° ENE daylight
02 Feb - 23:21:13 10° WNW 23:30:38 66° NNE 23:40:21 10° ESE daylight
